| time (UTC) | temp C | wind direction | speed KPH | gust KPH | rain 1hr cm | rain 24hr cm | rain mn cm | humidity % | barometer mb |
| 20260510161519 | 12 | 82 | 1.6 | 6.4 | 0.00 | 0.00 | 0.00 | 56 | 1015.5 |
| 20260510160026 | 13 | 44 | 4.8 | 20.9 | 0.00 | 0.00 | 0.00 | 56 | 1015.6 |
| 20260510154510 | 12 | 71 | 6.4 | 17.7 | 0.00 | 0.00 | 0.00 | 57 | 1015.9 |
| 20260510153014 | 12 | 60 | 3.2 | 14.5 | 0.00 | 0.00 | 0.00 | 60 | 1016.0 |
| 20260510151515 | 12 | 86 | 6.4 | 19.3 | 0.00 | 0.00 | 0.00 | 60 | 1016.2 |
| 20260510150022 | 12 | 70 | 4.8 | 12.9 | 0.00 | 0.00 | 0.00 | 60 | 1016.3 |
| 20260510144527 | 12 | 94 | 6.4 | 16.1 | 0.00 | 0.00 | 0.00 | 60 | 1016.5 |
| 20260510143015 | 12 | 49 | 4.8 | 19.3 | 0.00 | 0.00 | 0.00 | 62 | 1016.6 |
| 20260510141516 | 12 | 63 | 6.4 | 19.3 | 0.00 | 0.00 | 0.00 | 63 | 1016.8 |
| 20260510140019 | 12 | 68 | 4.8 | 16.1 | 0.00 | 0.00 | 0.00 | 63 | 1016.7 |
| 20260510134524 | 12 | 36 | 4.8 | 14.5 | 0.00 | 0.00 | 0.00 | 64 | 1016.7 |
| 20260510133026 | 12 | 67 | 4.8 | 12.9 | 0.00 | 0.00 | 0.00 | 65 | 1016.8 |
| 20260510131511 | 12 | 71 | 3.2 | 12.9 | 0.00 | 0.00 | 0.00 | 65 | 1016.9 |
| 20260510130018 | 11 | 68 | 9.7 | 17.7 | 0.00 | 0.00 | 0.00 | 66 | 1017.0 |
| 20260510124522 | 12 | 36 | 4.8 | 16.1 | 0.00 | 0.00 | 0.00 | 66 | 1017.2 |
| 20260510123024 | 12 | 69 | 6.4 | 16.1 | 0.00 | 0.00 | 0.00 | 66 | 1017.2 |
| 20260510121527 | 11 | 141 | 1.6 | 16.1 | 0.00 | 0.00 | 0.00 | 69 | 1017.3 |
| 20260510120016 | 12 | 79 | 4.8 | 16.1 | 0.00 | 0.00 | 0.00 | 68 | 1017.5 |
| 20260510114520 | 12 | 77 | 3.2 | 19.3 | 0.00 | 0.00 | 0.00 | 67 | 1017.5 |
| 20260510113030 | 12 | 91 | 9.7 | 20.9 | 0.00 | 0.00 | 0.00 | 67 | 1017.8 |
| 20260510111524 | 12 | 57 | 6.4 | 20.9 | 0.00 | 0.00 | 0.00 | 66 | 1017.7 |
| 20260510110033 | 13 | 68 | 4.8 | 20.9 | 0.00 | 0.00 | 0.00 | 65 | 1017.8 |
| 20260510104515 | 12 | 68 | 4.8 | 16.1 | 0.00 | 0.00 | 0.00 | 65 | 1017.8 |
| 20260510103021 | 13 | 84 | 3.2 | 11.3 | 0.00 | 0.00 | 0.00 | 66 | 1017.9 |
| 20260510101525 | 12 | 50 | 6.4 | 20.9 | 0.00 | 0.00 | 0.00 | 68 | 1018.0 |
| 20260510100025 | 12 | 66 | 8.0 | 19.3 | 0.00 | 0.00 | 0.00 | 67 | 1017.9 |
| 20260510094528 | 12 | 60 | 4.8 | 17.7 | 0.00 | 0.00 | 0.00 | 67 | 1017.9 |
| 20260510093025 | 12 | 86 | 4.8 | 20.9 | 0.00 | 0.00 | 0.00 | 68 | 1018.0 |
| 20260510091526 | 11 | 72 | 6.4 | 20.9 | 0.00 | 0.00 | 0.00 | 69 | 1018.2 |
| 20260510090040 | 11 | 53 | 8.0 | 20.9 | 0.00 | 0.00 | 0.00 | 69 | 1018.2 |
| 20260510084529 | 11 | 11 | 3.2 | 14.5 | 0.00 | 0.00 | 0.00 | 72 | 1018.4 |
| 20260510083029 | 11 | 83 | 8.0 | 17.7 | 0.00 | 0.00 | 0.00 | 73 | 1018.5 |
| 20260510081520 | 10 | 87 | 4.8 | 16.1 | 0.00 | 0.00 | 0.00 | 75 | 1018.6 |
| 20260510080024 | 10 | 86 | 3.2 | 16.1 | 0.00 | 0.00 | 0.00 | 75 | 1018.6 |
| 20260510074528 | 10 | 91 | 6.4 | 12.9 | 0.00 | 0.00 | 0.00 | 76 | 1018.5 |
| 20260510073027 | 10 | 73 | 6.4 | 16.1 | 0.00 | 0.00 | 0.00 | 76 | 1018.5 |
| 20260510071529 | 10 | 64 | 6.4 | 22.5 | 0.00 | 0.00 | 0.00 | 77 | 1018.4 |
| 20260510070021 | 10 | 74 | 4.8 | 12.9 | 0.00 | 0.00 | 0.00 | 77 | 1018.4 |
| 20260510064529 | 10 | 65 | 4.8 | 14.5 | 0.00 | 0.00 | 0.00 | 78 | 1018.4 |
| 20260510063026 | 10 | 39 | 4.8 | 14.5 | 0.00 | 0.00 | 0.00 | 79 | 1018.4 |
| 20260510061530 | 10 | 101 | 4.8 | 14.5 | 0.00 | 0.00 | 0.00 | 79 | 1018.2 |
| 20260510060028 | 9 | 79 | 3.2 | 9.7 | 0.00 | 0.00 | 0.00 | 80 | 1018.1 |
| 20260510054524 | 9 | 75 | 3.2 | 16.1 | 0.00 | 0.00 | 0.00 | 80 | 1018.1 |
| 20260510053026 | 9 | 58 | 3.2 | 14.5 | 0.00 | 0.00 | 0.00 | 81 | 1018.1 |
| 20260510051512 | 9 | 88 | 1.6 | 12.9 | 0.00 | 0.00 | 0.00 | 81 | 1018.1 |
| 20260510050016 | 9 | 72 | 4.8 | 12.9 | 0.00 | 0.00 | 0.00 | 81 | 1018.1 |
| 20260510044529 | 9 | 87 | 3.2 | 12.9 | 0.00 | 0.00 | 0.00 | 80 | 1018.0 |
| 20260510043026 | 9 | 99 | 1.6 | 9.7 | 0.00 | 0.00 | 0.00 | 80 | 1018.1 |
| 20260510041507 | 9 | 354 | 3.2 | 12.9 | 0.00 | 0.00 | 0.00 | 80 | 1018.0 |
| 20260510040011 | 9 | 81 | 3.2 | 9.7 | 0.00 | 0.00 | 0.00 | 80 | 1018.2 |
| 20260510034521 | 9 | 49 | 3.2 | 9.7 | 0.00 | 0.00 | 0.00 | 80 | 1018.3 |
| 20260510033024 | 9 | 79 | 3.2 | 16.1 | 0.00 | 0.00 | 0.00 | 80 | 1018.4 |
| 20260510031525 | 9 | 79 | 4.8 | 9.7 | 0.00 | 0.00 | 0.00 | 79 | 1018.4 |
| 20260510030010 | 9 | 160 | 3.2 | 11.3 | 0.00 | 0.00 | 0.00 | 79 | 1018.4 |
| 20260510024517 | 9 | 70 | 3.2 | 11.3 | 0.00 | 0.00 | 0.00 | 78 | 1018.4 |
| 20260510023020 | 9 | 77 | 4.8 | 12.9 | 0.00 | 0.00 | 0.00 | 78 | 1018.4 |
| 20260510021528 | 9 | 51 | 1.6 | 11.3 | 0.00 | 0.00 | 0.00 | 80 | 1018.4 |
| 20260510020030 | 10 | 77 | 1.6 | 12.9 | 0.00 | 0.00 | 0.00 | 80 | 1018.4 |
| 20260510014509 | 10 | 30 | 1.6 | 9.7 | 0.00 | 0.00 | 0.00 | 80 | 1018.5 |
| 20260510013017 | 10 | 83 | 1.6 | 6.4 | 0.00 | 0.00 | 0.00 | 80 | 1018.7 |
| 20260510011520 | 10 | 82 | 3.2 | 9.7 | 0.00 | 0.00 | 0.00 | 79 | 1018.5 |
| 20260510010026 | 10 | 92 | 3.2 | 12.9 | 0.00 | 0.00 | 0.00 | 78 | 1018.5 |
| 20260510004528 | 10 | 71 | 3.2 | 8.0 | 0.00 | 0.00 | 0.00 | 76 | 1018.5 |
| 20260510003021 | 10 | 10 | 1.6 | 9.7 | 0.00 | 0.00 | 0.00 | 71 | 1018.6 |
| 20260510001517 | 11 | 79 | 3.2 | 17.7 | 0.00 | 0.00 | 0.00 | 64 | 1018.5 |
| 20260510000023 | 11 | 77 | 3.2 | 8.0 | 0.00 | 0.00 | 0.00 | 58 | 1018.5 |
| 20260509234527 | 12 | 83 | 1.6 | 11.3 | 0.00 | 0.00 | 0.00 | 56 | 1018.4 |
| 20260509233028 | 12 | 74 | 6.4 | 11.3 | 0.00 | 0.00 | 0.00 | 55 | 1018.3 |
| 20260509231516 | 12 | 81 | 3.2 | 8.0 | 0.00 | 0.00 | 0.00 | 55 | 1018.2 |
| 20260509230020 | 12 | 68 | 0.0 | 6.4 | 0.00 | 0.00 | 0.00 | 53 | 1018.2 |
| 20260509224531 | 12 | 92 | 1.6 | 12.9 | 0.00 | 0.00 | 0.00 | 53 | 1018.1 |
| 20260509223027 | 12 | 65 | 1.6 | 6.4 | 0.00 | 0.00 | 0.00 | 53 | 1018.1 |
| 20260509221530 | 13 | 38 | 1.6 | 4.8 | 0.00 | 0.00 | 0.00 | 51 | 1018.1 |
| 20260509220017 | 13 | 25 | 0.0 | 3.2 | 0.00 | 0.00 | 0.00 | 49 | 1018.1 |
| 20260509214521 | 13 | 54 | 0.0 | 1.6 | 0.00 | 0.00 | 0.00 | 48 | 1018.2 |
| 20260509213026 | 13 | 79 | 1.6 | 4.8 | 0.00 | 0.00 | 0.00 | 48 | 1018.0 |
| 20260509211537 | 13 | 46 | 0.0 | 4.8 | 0.00 | 0.00 | 0.00 | 49 | 1017.9 |
| 20260509210030 | 13 | 59 | 0.0 | 3.2 | 0.00 | 0.00 | 0.00 | 53 | 1017.7 |
| 20260509204519 | 14 | 72 | 0.0 | 1.6 | 0.00 | 0.00 | 0.00 | 54 | 1017.7 |
| 20260509203025 | 14 | 72 | 0.0 | 1.6 | 0.00 | 0.00 | 0.00 | 53 | 1017.5 |
| 20260509201525 | 15 | 83 | 0.0 | 1.6 | 0.00 | 0.00 | 0.00 | 51 | 1017.4 |
| 20260509200027 | 15 | 84 | 0.0 | 1.6 | 0.00 | 0.00 | 0.00 | 50 | 1017.4 |
| 20260509194530 | 15 | 84 | 0.0 | 1.6 | 0.00 | 0.00 | 0.00 | 48 | 1017.1 |
| 20260509193025 | 16 | 83 | 0.0 | 1.6 | 0.00 | 0.00 | 0.00 | 47 | 1017.0 |
| 20260509191522 | 16 | 84 | 0.0 | 1.6 | 0.00 | 0.00 | 0.00 | 46 | 1017.0 |
| 20260509190028 | 17 | 86 | 1.6 | 3.2 | 0.00 | 0.00 | 0.00 | 44 | 1016.9 |
| 20260509184532 | 17 | 84 | 0.0 | 3.2 | 0.00 | 0.00 | 0.00 | 44 | 1016.6 |
| 20260509183031 | 18 | 101 | 1.6 | 4.8 | 0.00 | 0.00 | 0.00 | 42 | 1016.5 |
| 20260509181522 | 19 | 89 | 1.6 | 4.8 | 0.00 | 0.00 | 0.00 | 41 | 1016.4 |
| 20260509180027 | 20 | 86 | 0.0 | 4.8 | 0.00 | 0.00 | 0.00 | 41 | 1016.3 |
| 20260509174527 | 20 | 96 | 1.6 | 4.8 | 0.00 | 0.00 | 0.00 | 41 | 1016.2 |
| 20260509173028 | 21 | 91 | 1.6 | 3.2 | 0.00 | 0.00 | 0.00 | 39 | 1016.0 |
| 20260509171529 | 21 | 92 | 1.6 | 3.2 | 0.00 | 0.00 | 0.00 | 39 | 1016.1 |
| 20260509170022 | 21 | 95 | 3.2 | 6.4 | 0.00 | 0.00 | 0.00 | 38 | 1016.3 |
| 20260509164527 | 21 | 98 | 3.2 | 6.4 | 0.00 | 0.00 | 0.00 | 37 | 1016.3 |
| 20260509163029 | 21 | 76 | 1.6 | 4.8 | 0.00 | 0.00 | 0.00 | 39 | 1016.2 |